�������l�o���
Date,Time,MP-1(��Sv/h),MP-2(��Sv/h),MP-3(��Sv/h),MP-4(��Sv/h),MP-5(��Sv/h),MP-6(��Sv/h),MP-7(��Sv/h),MP-8(��Sv/h),����,����(m/s),���J
2023/04/06,00:00,0.572,0.837,0.502,1.047,0.738,0.326,0.583,0.552,��쓌,8.0,��
2023/04/06,00:10,0.574,0.841,0.501,1.048,0.738,0.327,0.583,0.552,��,8.2,��
2023/04/06,00:20,0.573,0.839,0.501,1.045,0.738,0.326,0.582,0.551,��,8.5,��
2023/04/06,00:30,0.573,0.837,0.502,1.044,0.738,0.326,0.585,0.550,��,8.0,��
2023/04/06,00:40,0.574,0.836,0.503,1.046,0.737,0.326,0.585,0.550,��,9.6,��
2023/04/06,00:50,0.573,0.838,0.501,1.045,0.737,0.327,0.582,0.551,��,8.0,��
2023/04/06,01:00,0.574,0.837,0.501,1.046,0.737,0.327,0.582,0.551,��,7.7,��
2023/04/06,01:10,0.573,0.837,0.502,1.046,0.738,0.325,0.584,0.551,��,6.9,��
2023/04/06,01:20,0.574,0.837,0.502,1.046,0.737,0.325,0.585,0.552,��,6.8,��
2023/04/06,01:30,0.574,0.837,0.501,1.046,0.734,0.327,0.582,0.551,��,6.3,��
2023/04/06,01:40,0.573,0.837,0.503,1.047,0.737,0.325,0.582,0.551,��,7.0,��
2023/04/06,01:50,0.573,0.838,0.504,1.045,0.736,0.327,0.583,0.552,��,6.4,��
2023/04/06,02:00,0.574,0.835,0.502,1.047,0.735,0.327,0.583,0.552,��,7.6,��
2023/04/06,02:10,0.574,0.838,0.502,1.046,0.737,0.325,0.584,0.551,��,5.7,��
2023/04/06,02:20,0.573,0.838,0.500,1.043,0.735,0.327,0.583,0.551,��,5.4,��
2023/04/06,02:30,0.572,0.837,0.502,1.045,0.736,0.327,0.582,0.551,��,6.0,��
2023/04/06,02:40,0.574,0.837,0.499,1.047,0.737,0.326,0.584,0.550,��,5.8,��
2023/04/06,02:50,0.575,0.836,0.502,1.047,0.737,0.326,0.583,0.551,��,8.4,��
2023/04/06,03:00,0.571,0.839,0.502,1.046,0.738,0.327,0.583,0.552,��,8.5,��
2023/04/06,03:10,0.573,0.837,0.501,1.046,0.740,0.326,0.584,0.552,��,8.8,��
2023/04/06,03:20,0.574,0.838,0.502,1.045,0.736,0.328,0.584,0.552,��,8.9,��
2023/04/06,03:30,0.573,0.839,0.502,1.045,0.736,0.325,0.582,0.551,��,7.4,��
2023/04/06,03:40,0.574,0.840,0.501,1.043,0.737,0.326,0.584,0.552,��,7.4,��
2023/04/06,03:50,0.575,0.837,0.502,1.043,0.738,0.327,0.583,0.551,��,7.5,��
2023/04/06,04:00,0.572,0.838,0.498,1.045,0.738,0.325,0.584,0.550,��,6.2,��
2023/04/06,04:10,0.573,0.836,0.500,1.045,0.736,0.327,0.583,0.551,��,5.3,��
2023/04/06,04:20,0.572,0.835,0.501,1.046,0.736,0.325,0.584,0.552,��,5.4,��
2023/04/06,04:30,0.573,0.838,0.502,1.046,0.736,0.327,0.583,0.551,��,5.3,��
2023/04/06,04:40,0.573,0.838,0.502,1.045,0.737,0.326,0.585,0.551,��,5.4,��
2023/04/06,04:50,0.572,0.836,0.500,1.045,0.738,0.326,0.584,0.552,��,6.2,��
2023/04/06,05:00,0.574,0.836,0.502,1.045,0.739,0.328,0.583,0.551,��,6.3,��
2023/04/06,05:10,0.573,0.836,0.502,1.046,0.738,0.327,0.583,0.552,��쐼,6.8,��
2023/04/06,05:20,0.572,0.838,0.501,1.047,0.738,0.326,0.583,0.551,��,4.6,��
2023/04/06,05:30,0.573,0.838,0.502,1.046,0.738,0.326,0.584,0.550,��,5.9,��
2023/04/06,05:40,0.574,0.837,0.501,1.046,0.737,0.326,0.584,0.551,��,6.6,��
2023/04/06,05:50,0.572,0.838,0.500,1.046,0.737,0.325,0.584,0.551,��,6.6,��
2023/04/06,06:00,0.573,0.837,0.501,1.046,0.738,0.326,0.582,0.552,��,6.9,��
2023/04/06,06:10,0.572,0.838,0.502,1.045,0.738,0.326,0.583,0.551,��,6.5,��
2023/04/06,06:20,0.573,0.839,0.502,1.045,0.736,0.326,0.585,0.552,��,6.2,��
2023/04/06,06:30,0.573,0.838,0.502,1.045,0.739,0.326,0.585,0.551,��,6.1,��
2023/04/06,06:40,0.573,0.839,0.500,1.045,0.739,0.326,0.582,0.551,��,6.9,��
2023/04/06,06:50,0.571,0.837,0.503,1.045,0.737,0.325,0.584,0.551,��쐼,5.8,��
2023/04/06,07:00,0.573,0.836,0.504,1.047,0.738,0.327,0.582,0.551,��쐼,6.5,��
2023/04/06,07:10,0.573,0.835,0.502,1.046,0.740,0.325,0.582,0.553,��쐼,6.1,��
2023/04/06,07:20,0.572,0.835,0.502,1.046,0.738,0.325,0.585,0.552,��쐼,6.3,��
2023/04/06,07:30,0.571,0.831,0.501,1.046,0.737,0.324,0.583,0.552,��,7.1,��
2023/04/06,07:40,0.573,0.836,0.502,1.048,0.737,0.325,0.582,0.549,��,7.4,��
2023/04/06,07:50,0.572,0.835,0.503,1.047,0.737,0.324,0.582,0.550,��,7.5,�L
2023/04/06,08:00,0.572,0.837,0.503,1.045,0.736,0.324,0.581,0.551,��,8.0,�L
2023/04/06,08:10,0.573,0.836,0.500,1.046,0.738,0.323,0.582,0.549,��,6.5,�L
2023/04/06,08:20,0.573,0.833,0.503,1.046,0.736,0.325,0.583,0.550,��,8.2,�L
2023/04/06,08:30,0.571,0.833,0.501,1.048,0.736,0.323,0.583,0.548,��,6.8,�L
2023/04/06,08:40,0.572,0.833,0.502,1.046,0.735,0.324,0.582,0.548,��,6.3,�L
2023/04/06,08:50,0.571,0.832,0.502,1.047,0.736,0.325,0.583,0.548,��,6.4,�L
2023/04/06,09:00,0.572,0.834,0.501,1.047,0.739,0.324,0.582,0.550,��,6.6,�L
2023/04/06,09:10,0.572,0.834,0.502,1.047,0.735,0.325,0.583,0.548,��,6.8,�L
2023/04/06,09:20,0.573,0.833,0.501,1.050,0.737,0.324,0.584,0.550,��,7.0,�L
2023/04/06,09:30,0.572,0.832,0.502,1.047,0.737,0.326,0.583,0.549,��,7.0,�L
2023/04/06,09:40,0.573,0.835,0.502,1.049,0.737,0.325,0.585,0.548,��쐼,5.0,��
2023/04/06,09:50,0.572,0.834,0.502,1.048,0.736,0.325,0.584,0.549,��,7.2,�L
2023/04/06,10:00,0.572,0.835,0.502,1.048,0.736,0.324,0.584,0.549,��,5.5,�L
2023/04/06,10:10,0.570,0.835,0.501,1.045,0.737,0.324,0.584,0.549,��,4.9,�L
2023/04/06,10:20,0.570,0.833,0.502,1.048,0.736,0.324,0.584,0.549,��쐼,6.0,�L
2023/04/06,10:30,0.570,0.835,0.504,1.049,0.736,0.326,0.583,0.549,��,6.4,�L
2023/04/06,10:40,0.573,0.835,0.501,1.047,0.736,0.325,0.584,0.550,��,7.0,��
2023/04/06,10:50,0.571,0.834,0.503,1.047,0.736,0.324,0.583,0.549,��,6.0,��
2023/04/06,11:00,0.570,0.833,0.502,1.048,0.736,0.323,0.584,0.549,��쐼,6.6,��
2023/04/06,11:10,0.571,0.834,0.504,1.047,0.736,0.325,0.585,0.550,��,6.3,��
2023/04/06,11:20,0.572,0.834,0.502,1.047,0.736,0.325,0.586,0.550,��,6.8,��
2023/04/06,11:30,0.567,0.833,0.502,1.047,0.737,0.323,0.585,0.551,��,7.1,��
2023/04/06,11:40,0.571,0.833,0.503,1.049,0.735,0.325,0.584,0.549,��,6.5,��
2023/04/06,11:50,0.571,0.834,0.502,1.050,0.737,0.326,0.586,0.549,��,6.9,��
2023/04/06,12:00,0.572,0.835,0.502,1.046,0.735,0.327,0.584,0.550,��,8.0,��
2023/04/06,12:10,0.573,0.836,0.503,1.047,0.735,0.325,0.584,0.549,��,10.0,��
2023/04/06,12:20,0.571,0.835,0.499,1.048,0.735,0.327,0.583,0.548,��,11.3,��
2023/04/06,12:30,0.572,0.836,0.501,1.048,0.736,0.325,0.585,0.549,��,11.3,��
2023/04/06,12:40,0.573,0.834,0.500,1.047,0.737,0.325,0.584,0.549,��쓌,13.3,��
2023/04/06,12:50,0.573,0.834,0.499,1.049,0.736,0.325,0.583,0.549,��쓌,12.7,��
2023/04/06,13:00,0.572,0.834,0.499,1.049,0.736,0.325,0.585,0.549,��쓌,13.6,��
2023/04/06,13:10,0.573,0.833,0.502,1.047,0.736,0.326,0.585,0.548,��쓌,11.7,��
2023/04/06,13:20,0.573,0.835,0.500,1.046,0.735,0.326,0.585,0.547,��,10.2,��
2023/04/06,13:30,0.572,0.834,0.501,1.048,0.736,0.325,0.585,0.549,��,10.2,��
2023/04/06,13:40,0.572,0.835,0.501,1.048,0.738,0.326,0.584,0.550,��,9.5,��
2023/04/06,13:50,0.574,0.836,0.498,1.047,0.738,0.325,0.585,0.550,��,10.5,��
2023/04/06,14:00,0.573,0.834,0.499,1.047,0.736,0.326,0.586,0.549,��,11.3,��
2023/04/06,14:10,0.572,0.835,0.500,1.046,0.736,0.326,0.585,0.548,��쓌,7.5,��
2023/04/06,14:20,0.573,0.835,0.500,1.047,0.738,0.326,0.585,0.550,��쓌,7.8,��
2023/04/06,14:30,0.574,0.835,0.501,1.049,0.738,0.326,0.585,0.549,��쓌,9.7,��
2023/04/06,14:40,0.570,0.834,0.501,1.047,0.738,0.326,0.585,0.550,��,10.3,��
2023/04/06,14:50,0.573,0.836,0.502,1.048,0.738,0.326,0.586,0.551,��쓌,10.9,��
2023/04/06,15:00,0.573,0.837,0.499,1.046,0.738,0.327,0.584,0.549,��쓌,9.7,��
2023/04/06,15:10,0.573,0.836,0.500,1.045,0.739,0.326,0.585,0.551,��,11.7,��
2023/04/06,15:20,0.574,0.836,0.500,1.048,0.737,0.325,0.585,0.550,��,10.0,��
2023/04/06,15:30,0.574,0.836,0.499,1.047,0.738,0.326,0.584,0.551,��,9.0,��
2023/04/06,15:40,0.574,0.836,0.501,1.049,0.738,0.326,0.584,0.550,��,8.3,��
2023/04/06,15:50,0.575,0.836,0.499,1.045,0.736,0.325,0.586,0.549,��쓌,9.5,��
2023/04/06,16:00,0.571,0.834,0.500,1.047,0.738,0.326,0.584,0.550,��쓌,10.2,��
2023/04/06,16:10,0.574,0.836,0.499,1.049,0.738,0.327,0.585,0.549,��,9.9,��
2023/04/06,16:20,0.573,0.835,0.499,1.048,0.736,0.327,0.585,0.551,��,9.0,��
2023/04/06,16:30,0.571,0.837,0.500,1.048,0.736,0.326,0.585,0.550,��,7.5,��
2023/04/06,16:40,0.575,0.835,0.498,1.051,0.737,0.325,0.585,0.550,��,9.7,��
2023/04/06,16:50,0.571,0.838,0.499,1.047,0.736,0.325,0.586,0.549,��,9.2,��
2023/04/06,17:00,0.574,0.836,0.499,1.050,0.737,0.326,0.585,0.551,��,8.7,��
2023/04/06,17:10,0.573,0.836,0.500,1.048,0.734,0.326,0.584,0.549,��,10.5,��
2023/04/06,17:20,0.573,0.836,0.502,1.050,0.735,0.326,0.583,0.552,��쓌,9.5,��
2023/04/06,17:30,0.572,0.835,0.502,1.047,0.734,0.327,0.584,0.551,��,9.1,��
2023/04/06,17:40,0.574,0.835,0.500,1.051,0.736,0.327,0.585,0.551,��,9.9,��
2023/04/06,17:50,0.571,0.834,0.501,1.050,0.737,0.325,0.585,0.551,��,9.1,��
2023/04/06,18:00,0.575,0.836,0.502,1.050,0.737,0.326,0.585,0.548,��쓌,9.9,��
2023/04/06,18:10,0.574,0.835,0.502,1.049,0.737,0.326,0.583,0.549,��,8.6,��
2023/04/06,18:20,0.574,0.838,0.499,1.050,0.735,0.326,0.584,0.550,��쓌,8.7,��
2023/04/06,18:30,0.572,0.835,0.501,1.049,0.737,0.326,0.585,0.549,��,8.3,�L
2023/04/06,18:40,0.573,0.835,0.501,1.049,0.737,0.325,0.583,0.551,��,9.7,��
2023/04/06,18:50,0.572,0.834,0.502,1.049,0.738,0.327,0.585,0.551,��,9.9,��
2023/04/06,19:00,0.573,0.837,0.502,1.048,0.736,0.327,0.586,0.552,��,9.9,��
2023/04/06,19:10,0.573,0.835,0.501,1.048,0.736,0.326,0.584,0.552,��쓌,9.8,��
2023/04/06,19:20,0.572,0.837,0.502,1.048,0.737,0.326,0.584,0.551,��,10.0,��
2023/04/06,19:30,0.574,0.835,0.502,1.047,0.737,0.328,0.585,0.552,��,11.8,��
2023/04/06,19:40,0.574,0.837,0.502,1.049,0.738,0.327,0.584,0.553,��,10.5,��
2023/04/06,19:50,0.573,0.837,0.504,1.051,0.737,0.327,0.584,0.552,��,9.6,��
2023/04/06,20:00,0.573,0.837,0.503,1.049,0.739,0.325,0.584,0.553,��,10.0,��
2023/04/06,20:10,0.573,0.836,0.502,1.048,0.739,0.328,0.584,0.552,��,10.6,��
2023/04/06,20:20,0.575,0.836,0.503,1.048,0.737,0.326,0.584,0.550,��,11.6,��
2023/04/06,20:30,0.572,0.836,0.502,1.049,0.739,0.325,0.585,0.554,��,10.9,��
2023/04/06,20:40,0.572,0.836,0.502,1.049,0.737,0.326,0.584,0.552,��,9.4,��
2023/04/06,20:50,0.573,0.837,0.502,1.049,0.736,0.327,0.584,0.550,��,9.4,��
2023/04/06,21:00,0.572,0.837,0.502,1.049,0.737,0.326,0.585,0.551,��쓌,10.0,��
2023/04/06,21:10,0.574,0.835,0.502,1.048,0.736,0.327,0.585,0.553,��쓌,10.7,��
2023/04/06,21:20,0.572,0.836,0.501,1.049,0.736,0.326,0.585,0.551,��쓌,10.2,��
2023/04/06,21:30,0.572,0.836,0.501,1.050,0.737,0.326,0.586,0.550,��쓌,10.6,��
2023/04/06,21:40,0.572,0.838,0.502,1.050,0.736,0.327,0.584,0.550,��쓌,9.2,��
2023/04/06,21:50,0.574,0.836,0.503,1.050,0.737,0.326,0.585,0.551,��,9.1,��
2023/04/06,22:00,0.572,0.836,0.501,1.048,0.738,0.327,0.582,0.552,��,8.1,��
2023/04/06,22:10,0.573,0.835,0.502,1.048,0.737,0.326,0.584,0.551,��,8.9,��
2023/04/06,22:20,0.574,0.838,0.502,1.049,0.737,0.326,0.585,0.552,��,8.4,��
2023/04/06,22:30,0.574,0.837,0.502,1.048,0.736,0.326,0.585,0.551,��,9.5,��
2023/04/06,22:40,0.574,0.838,0.502,1.047,0.738,0.327,0.585,0.552,��,9.3,��
2023/04/06,22:50,0.575,0.840,0.505,1.051,0.737,0.325,0.584,0.551,��,9.7,��
2023/04/06,23:00,0.576,0.837,0.504,1.050,0.738,0.326,0.585,0.551,��,8.8,��
2023/04/06,23:10,0.574,0.838,0.503,1.049,0.738,0.327,0.584,0.553,��,8.9,��
2023/04/06,23:20,0.575,0.838,0.504,1.048,0.736,0.326,0.584,0.552,��,8.8,��
2023/04/06,23:30,0.575,0.836,0.502,1.049,0.737,0.327,0.585,0.552,��,8.1,��
2023/04/06,23:40,0.573,0.838,0.502,1.047,0.738,0.327,0.586,0.552,��,8.7,��
2023/04/06,23:50,0.575,0.837,0.504,1.049,0.735,0.325,0.585,0.553,��,7.7,��
